Regional Weather Roundup
Issued by NWS

Home | Current Version | Previous Version | Text Only | Print | Product List | Glossary Off
Versions: 1 2 3 4 5 6 7 8 9 10 11 12 13 14 15 16 17 18 19 20 21 22 23 24 25 26 27 28 29 30 31 32 33 34 35 36 37 38 39 40 41 42 43 44 45 46 47 48

000
ASUS45 KSLC 282010
RWRUT

UTAH REGIONAL WEATHER ROUNDUP
NATIONAL WEATHER SERVICE SALT LAKE CITY UT
200 PM MDT SAT MAR 28 2015

UTZ001>011-023>025-282100-

NORTHERN UTAH

CITY           SKY/WX    TMP DP  RH WIND       PRES   REMARKS
BRIGHAM CITY   CLOUDY    67  28  22 SW9       30.13S
HILL AFB       PTSUNNY   66  27  22 W14       30.16R
LOGAN          SUNNY     67  33  28 W15G23    30.11R
OGDEN          PTSUNNY   67  27  22 W13       30.14S
PROVO AIRPORT  MOSUNNY   72  34  25 E3        30.12F
SALT LAKE CITY PTSUNNY   73  28  18 NW8       30.11F
VERNAL         SUNNY     71  27  19 S7        30.08F
WENDOVER       SUNNY     75  16  10 W16G25    30.13S
HEBER CITY     MOSUNNY   72  27  18 SW12      30.13F
WEST JORDAN    SUNNY     72  36  26 N8        30.13F

$$

UTZ012>022-026-027-282100-

SOUTHERN/CENTRAL UTAH

CITY           SKY/WX    TMP DP  RH WIND       PRES   REMARKS
BLANDING       SUNNY     69  27  20 SW14      30.27F
BRYCE CANYON   SUNNY     65  22  19 W8G23     30.29F
CEDAR CITY     SUNNY     73  20  13 SE6       30.18F
DELTA          SUNNY     74  22  14 W9        30.14F
HANKSVILLE     SUNNY     77  25  14 CALM      30.12F
MILFORD        SUNNY     76  25  15 S12G17    30.13F
MOAB/CYNLANDS  SUNNY     77  23  13 VRB6      30.08F
PRICE          SUNNY     70  24  17 SE7       30.16F
ST GEORGE      PTCLDY    75  30  19 NW3       30.12F
KANAB          SUNNY     77  23  13 SW15      30.21F

$$

REGIONAL REPORTS     COLORADO/ARIZONA

CITY           SKY/WX    TMP DP  RH WIND       PRES   REMARKS
CRAIG, CO      MOSUNNY   71  26  18 W18G25    30.10F
GRAND JUNCTION SUNNY     71  27  19 MISG      30.11F
RIFLE          SUNNY     75  25  15 W21G31    30.10F
MONTROSE       SUNNY     74  20  13 NW10G17   30.16F
CORTEZ         SUNNY     72  21  14 NW16      30.20F
PAGE, AZ       SUNNY     77  22  13 NE7       30.14F
GRAND CANYON   SUNNY     68  17  14 W13G20    30.30F
KINGMAN        SUNNY     82  22  11 SW7       30.14F
FLAGSTAFF      SUNNY     69   8   9 SW15G25   30.31F

$$

REGIONAL REPORTS    NEVADA/IDAHO/WYOMING

CITY           SKY/WX    TMP DP  RH WIND       PRES   REMARKS
LAS VEGAS, NV  SUNNY     85  27  12 CALM      30.02F
ELY            SUNNY     70  11  10 W12G18    30.24F
ELKO           MOSUNNY   67  23  19 W14G25    30.23R
POCATELLO, ID  MOSUNNY   59  30  33 W37G47    30.19R
BURLEY         LGT RAIN  56  28  34 W25G41    30.23R
EVANSTON, WY   MOSUNNY   64  22  20 W26G39    30.18S
ROCK SPRINGS   MOSUNNY   68  21  16 W30G40    30.09F
KEMMERER       SUNNY     61  23  23 W36G43    30.13F

$$



USA.gov is the U.S. government's official web portal to all federal, state and local government web resources and services.